Other Public Products
Issued by NWS Grand Forks, ND

Home | Current Version | Previous Version | Graphics & Text | Print | Product List | Glossary On
Versions: 1 2 3 4 5 6 7 8 9 10 11 12 13 14 15 16 17 18 19 20 21 22 23 24 25 26 27 28 29 30 31 32 33 34 35 36 37 38 39 40 41 42 43 44 45 46 47 48 49 50
000
FPUS83 KFGF 222010
OPUFGF
PRAIRIE TO PINES WEATHER ROUNDUP
NATIONAL WEATHER SERVICE EASTERN NORTH DAKOTA/GRAND FORKS ND
200 PM CST WED FEB 22 2017

 **SATELLITE DATA USED TO AUGMENT SKY COVER AT AUTOMATED STATIONS**
 *****  WEATHER ACROSS EASTERN NORTH DAKOTA  *****

CITY           SKY/WX    TMP DP  RH WIND       PRES   REMARKS
GRAND FORKS    CLOUDY    35  24  64 N18       29.78S WCI  24
GRAND FORKS AF PTSUNNY   34  29  81 N17       29.80R WCI  23
GRAND CITY NWS NOT AVBL
BUXTON         NOT AVBL
DEVILS LAKE    CLOUDY    32  27  81 N16       29.84R WCI  21
FARGO          LGT SNOW  34  33  96 N17       29.72R FOG     WCI  23
WAHPETON ARPT  CLOUDY    36  32  87 N18       29.67F
$$

 *****  WEATHER ACROSS CENTRAL AND WESTERN NORTH DAKOTA  *****

CITY           SKY/WX    TMP DP  RH WIND       PRES   REMARKS
JAMESTOWN      LGT SNOW  32  30  92 N17G26    29.78R FOG     WCI  21
BISMARCK       LGT SNOW  35  32  88 N13       29.83R FOG
MINOT          CLOUDY    33  28  81 N13       29.87R WCI  24
MINOT AFB      CLOUDY    32  26  78 N12       29.87R WCI  23
GARRISON         N/A     31  28  89 N10       29.86R WCI  22
WILLISTON      CLOUDY    33  26  75 NE9       29.92S
DICKINSON      CLOUDY    30  26  85 N12       29.84R WCI  20
HETTINGER      CLOUDY    32  28  85 N14       29.84R WCI  22
$$

 *****  OTHER OBSERVATIONS NORTHEAST NORTH DAKOTA  *****

CITY           SKY/WX    TMP DP  RH WIND       PRES   REMARKS
WALHALLA       NOT AVBL
LANGDON        NOT AVBL
CAVALIER         N/A     32  28  86 N13       29.83S WCI  22
GRAFTON        CLOUDY    34  30  86 N13G18    29.83S WCI  25
CANDO          NOT AVBL
FORT TOTTEN      N/A     33  30  89 N7        29.95S
ROLLA          CLOUDY    30  28  93 N12       29.85S WCI  21
RUGBY            N/A     32  30  93 N7        29.86R
 ***** THE ABOVE OBSERVATIONS ARE NON NWS ARE NOT QUALITY
        CONTROLLED AND MAY MIS-REPORT RAIN FOR SNOW...
$$

 *****  OTHER OBSERVATIONS SOUTHEAST NORTH DAKOTA *****

CITY           SKY/WX    TMP DP  RH WIND       PRES   REMARKS
COOPERSTOWN    MIX PCPN  32  28  86 N26       29.79R WCI  18
VALLEY CITY    LGT SNOW  32  32 100 N18G24    29.78R WCI  20
OAKES          NOT AVBL
GWINNER        CLOUDY    34  34 100 N20       29.72R VSB 1   WCI  22
SHEYENNE NWR     N/A     33  33 100 N12       29.95S WCI  24
BUFFALO        NOT AVBL
WYNDMERE       NOT AVBL
 ***** THE ABOVE OBSERVATIONS ARE NON NWS ARE NOT QUALITY
       CONTROLLED AND MAY MIS-REPORT RAIN FOR SNOW...
$$

  *****  WEATHER ACROSS NORTHERN MINNESOTA  *****

CITY           SKY/WX    TMP DP  RH WIND       PRES   REMARKS
FLAG ISLAND    CLOUDY    30  25  80 N12       29.77S WCI  21
WARROAD        CLOUDY    34  27  75 N14       29.77S WCI  24
ROSEAU         CLOUDY    34  27  75 N14G20    29.78S WCI  24
HALLOCK        CLOUDY    34  28  80 N13       29.81R WCI  25
THF RVR FALLS  FLURRIES  33  29  85 N17       29.76R WCI  22
HALSTAD          N/A     33  30  89 N22         N/A  WCI  21
FOSSTON        CLOUDY    32  30  93 N17       29.71R FOG     WCI  21
BAUDETTE       CLOUDY    32  26  78 N12       29.74R WCI  23
WASKISH        DRIZZLE   34  34 100 N8        29.71S
CROOKSTON      CLOUDY    34  34 100 N17       29.77S WCI  23
$$
  *****  WEATHER ACROSS CENTRAL AND WEST MINNESOTA  *****

CITY           SKY/WX    TMP DP  RH WIND       PRES   REMARKS
BEMIDJI        CLOUDY    33  32  96 N12       29.66S WCI  24
PARK RAPIDS    LGT RAIN  37  33  85 N13       29.61R
WADENA         DRIZZLE   37  37 100 N12G21    29.60R
DETROIT LAKES  LGT SNOW  34  34 100 N9        29.68R
MOORHEAD       LGT SNOW  32  30  93 N14       29.72R WCI  22
FERGUS FALLS   LGT RAIN  36  36 100 N15       29.69R
ELBOW LAKE     CLOUDY    35  34  97 N13G21    29.63F
MORRIS MN      PTSUNNY   43  39  87 NW22G29   29.62R
STAPLES        DRIZZLE   39  37  93 NE10      29.54F
WHEATON        CLOUDY    36  34  93 NW18G25   29.67R
$$
  *****  WEATHER ELSEWHERE ACROSS MINNESOTA  *****

CITY           SKY/WX    TMP DP  RH WIND       PRES   REMARKS
DULUTH         CLOUDY    43  36  76 SE7       29.58F
INTRNTL FALLS  LGT SNOW  34  30  85 N8        29.70S FOG
ELY            PTSUNNY   39  32  75 NE3       29.62S
CLOQUET        CLOUDY    46  34  61 E9        29.57F
BRAINERD       PTSUNNY   41  38  89 N9        29.58F
HIBBING        CLOUDY    40  34  79 N6        29.61S
ALEXANDRIA     CLOUDY    47  40  76 N13       29.60R
SAINT CLOUD    FAIR      53  42  66 CALM      29.54F
MINNEAPOLIS    PTSUNNY   53  43  68 CALM      29.54F
$$

  *****  WEATHER ACROSS SOUTH DAKOTA  *****

CITY           SKY/WX    TMP DP  RH WIND       PRES   REMARKS
SIOUX FALLS    FAIR      62  42  47 W18G29    29.62R
BROOKINGS      FAIR      50  43  77 NW17      29.62R
WATERTOWN      FAIR      45  38  76 N16       29.64R
HURON          FAIR      53  40  61 NW21G28   29.68R
SISSETON         N/A     39  37  92 N21       29.66R
ABERDEEN       CLOUDY    40  35  83 N21       29.73R
MITCHELL       FAIR      57  41  55 N23G30    29.68R
PIERRE         FAIR      54  38  54 N22       29.72F
MOBRIDGE       LGT RAIN  38  32  79 N12       29.75R
RAPID CITY     FAIR      57  18  21 NW25G32   29.74F
$$

  *****  SOME WEATHER IN NEARBY STATES *****

CITY           SKY/WX    TMP DP  RH WIND       PRES   REMARKS
GLASGOW MT     CLOUDY    31  26  82 MISG      29.95S
GREAT FALLS MT CLOUDY    37  27  67 N8        29.89F
CHEYENNE WY    CLOUDY    43  18  36 NW16G25   29.82F
SCOTTSBLUFF NE CLOUDY    56  18  22 W22G29    29.81F
OMAHA NE       FAIR      74  40  29 NW12G21   29.62F
DES MOINES IA  FAIR      71  34  25 W20       29.59F
DAVENPORT IA   FAIR      71  47  42 S16G23    29.61F
CHICAGO IL     FAIR      65  53  65 SW18G24   29.67F
EAU CLAIRE WI  PTSUNNY   55  40  56 SE6       29.55R
LA CROSSE WI   FAIR      60  39  45 S5        29.54F
$$

  *****  SOME NATIONAL WEATHER *****

CITY           SKY/WX    TMP DP  RH WIND       PRES   REMARKS
LA GUARDIA NY  PTSUNNY   57  38  48 S8        29.90F
RALEIGH NC     CLOUDY    70  50  49 CALM      29.94F
ATLANTA GA     PTSUNNY   70  59  68 E12G18    29.84F
NEW ORLEANS LA FAIR      72  54  53 NW10      29.79F
OKLAHOMA CITY  FAIR      80  34  19 SW21      29.72F
ALBUQUERQUE NM PTSUNNY   61  33  35 CALM      30.02F
SALT LAKE CITY LGT RAIN  40  34  79 S12       29.90F
LOS ANGELES CA FAIR      60  49  66 W13       30.10F
BOISE ID       FAIR      39  27  62 W9        29.94F
SEATTLE WA     PTSUNNY   41  34  76 S5        30.19F
$$

*** WEATHER ACROSS MANITOBA...SASKATCHEWAN AND ONTARIO ***
                ***ONTARIO***

CITY           SKY/WX    TMP DP  RH WIND       PRES   REMARKS
GERALDTON      CLOUDY    36  28  75 N6        29.63F
THUNDER BAY    PTSUNNY   43  32  65 W7        29.63S
SIOUX LOOKOUT  CLOUDY    30  23  74 N7        29.71S WCI  23
TORONTO        CLOUDY    46  43  87 S7        29.80F FOG
BIG TROUT LK   PTSUNNY   12   3  67 NW18G24   29.70R HAZE    WCI  -5
PICKLE LAKE    CLOUDY    32  19  59 W10       29.65S WCI  24
DRYDEN         CLOUDY    30  23  74 N7        29.71F WCI  23
KENORA         CLOUDY    34  21  60 NW12G20   29.74S
$$
                *** MANITOBA***

CITY           SKY/WX    TMP DP  RH WIND       PRES   REMARKS
BRANDON        PTSUNNY   36  25  64 NW10      29.86R
DAUPHIN        CLOUDY    30  23  74 E7        29.89R WCI  23
ISLAND LAKE    LGT SNOW   9   1  72 NW7G17    29.82R DRFTSNOWWCI  -3
PILOT MOUND      N/A     32  21  64 N9          N/A  WCI  24
THE PAS        FLURRIES  21  10  63 NW10      29.92S WCI  10
THOMPSON       LGT SNOW   3  -6  66 NW9       29.90R DRFTSNOWWCI -11
WINNIPEG       CLOUDY    34  28  80 NW12      29.83S
LYNN LAKE      LGT SNOW   1  -2  85 N9        29.96R WCI -14
CHURCHILL      PTSUNNY    0  -8  71 NE18G24   30.02R WCI -22
GILLAM         FLURRIES   1  -8  66 N16       29.86R WCI -18
$$
                ***SASKATCHEWAN***

CITY           SKY/WX    TMP DP  RH WIND       PRES   REMARKS
ESTEVAN        CLOUDY    32  27  80 NW9       29.91S WCI  24
KINDERSLEY     CLOUDY    28  23  80 NW14      29.96R WCI  17
LLOYDMINSTER   CLOUDY    23  19  86 NW13      29.98S WCI  11
PRINCE ALBERT  FLURRIES  25  12  58 N12       29.98R WCI  14
REGINA         PTSUNNY   36  27  69 NW13      29.91F
YORKTON        CLOUDY    32  27  80 N7        29.89R



USA.gov is the U.S. government's official web portal to all federal, state and local government web resources and services.